Location: Muenchen
(48.1800°N, 11.5800°E)
Time: 03:12:56
(UTC+01:00)

Tiros 1 - Visible Passes

Search period start: 24 February 2018 00:00
Search period end: 06 March 2018 00:00
Orbit: 630 x 665 km, 48.4° (Epoch: 23 February)

Date Brightness Start Highest point End Pass type
(mag) Time Alt. Az. Time Alt. Az. Time Alt. Az.
24 Feb 7.2 19:14:17 10° W 19:19:05 74° SSW 19:21:44 26° ESE visible
24 Feb 9.1 20:56:48 10° W 20:59:25 24° WSW 20:59:25 24° WSW visible
25 Feb 7.8 19:40:31 10° W 19:45:08 50° SSW 19:46:59 32° SSE visible
25 Feb 9.9 21:23:52 10° WSW 21:24:40 12° WSW 21:24:40 12° WSW visible
26 Feb 7.3 18:24:26 10° W 18:29:14 76° SSW 18:34:00 10° ESE visible
26 Feb 8.5 20:06:54 10° W 20:11:04 30° SW 20:12:18 26° S visible
27 Feb 7.8 18:50:39 10° W 18:55:19 52° SSW 18:59:57 10° SE visible
27 Feb 9.4 20:33:51 10° W 20:36:48 16° SW 20:37:43 16° SSW visible
28 Feb 8.7 19:17:01 10° W 19:21:16 32° SSW 19:25:27 10° SSE visible
01 Mar 9.5 19:43:51 10° W 19:47:00 18° SW 19:50:09 10° S visible
02 Mar 8.8 18:27:08 10° W 18:31:27 34° SSW 18:35:43 10° SSE visible
03 Mar 9.7 18:53:53 10° W 18:57:13 19° SW 19:00:32 10° S visible
